Location: Petrozavodsk
(61.7955°N, 34.3748°E)
Time: 00:07:11
(UTC+03:00)

BlueWalker 3 - Visible Passes

Search period start: 26 March 2023 00:00
Search period end: 05 April 2023 00:00
Orbit: 497 x 515 km, 53.2° (Epoch: 24 March)

Date Brightness Start Highest point End Pass type
(mag) Time Alt. Az. Time Alt. Az. Time Alt. Az.
29 Mar 3.9 21:18:21 10° SSW 21:19:47 14° S 21:19:47 14° S visible
30 Mar 3.7 20:58:33 10° SSW 21:00:56 16° SSE 21:01:22 15° SSE visible
30 Mar 4.2 22:35:29 10° SW 22:36:08 13° SW 22:36:08 13° SW visible
31 Mar 3.7 20:38:44 10° SSW 20:41:10 16° SSE 20:42:46 13° SE visible
31 Mar 3.7 22:15:43 10° SW 22:17:31 19° SSW 22:17:31 19° SSW visible
01 Apr 3.7 20:18:54 10° SSW 20:21:22 16° SSE 20:23:48 10° ESE visible
01 Apr 3.3 21:55:55 10° SW 21:58:46 23° S 21:58:46 23° S visible
02 Apr 3.2 21:36:06 10° SW 21:39:14 23° S 21:39:53 22° SSE visible
02 Apr 4.4 23:14:12 10° WSW 23:14:37 12° WSW 23:14:37 12° WSW visible
03 Apr 3.3 21:16:16 10° SW 21:19:24 23° S 21:20:55 18° SE visible
03 Apr 4.1 22:54:23 10° WSW 22:55:39 15° SW 22:55:39 15° SW visible
04 Apr 3.4 20:56:25 10° SW 20:59:33 23° S 21:01:52 14° SE visible
04 Apr 3.8 22:34:33 10° WSW 22:36:36 18° SSW 22:36:36 18° SSW visible
